CZ-6A R/B

Satellite information

Favourite Embed

Satellite Type and Status

ROCKET BODYIN ORBIT

Key statistics

Satellite CZ-6A R/B at a glance.

Uptime

775

Days in orbit

Revolutions

≈ 15.2

Per day

Orbit

SSO

Sun Synchronous Orbit

Inclination

97.8

Latest

Satellite identification and parameters

Extended collection of information and parameters for CZ-6A R/B.

Object identification

Identified? True

Debris? False

Object name: CZ-6A R/B

International designator: 2023-168B

Object number (NORAD): 58200

Object ID (CCSDS): 58200

Country: PEOPLES REPUBLIC OF CHINA (PRC)

Current information (Y/N): Y

RCS size: LARGE

Orbital parameters

Period: 95.048 minutes

Inclination: 97.7653 deg

SMA: 6899.053 km

Apoapsis: 563.239 km

Periapsis: 478.597 km

RAAN: 15.2832 deg

Eccentricy: 0.00613435

Argument of periapsis: 279.7237 deg

Mean anomaly: 79.7069 deg

Mean motion: 15.15020677 rev/day

Mean motion (dot): 0.00007775 rev/day2

B* drag term: 0.0004007152 1/REarth

Two-line elements (TLE)

Creation date: Dec. 12, 2025, 10:14 a.m.

Reference frame: TEME

Reference center: EARTH

Epoch: Dec. 12, 2025, 6:28 a.m. UTC

TLE line 0: 0 CZ-6A R/B

TLE line 1: 1 58200U 23168B 25346.27011048 .00007775 00000-0 40072-3 0 9990

TLE line 2: 2 58200 97.7653 15.2832 0061343 279.7237 79.7069 15.15020677116526

Live tracking on map

Real-time ground track for satellite CZ-6A R/B.

In-orbit conjunctions

A list of the most updated potential collisions computed for object CZ-6A R/B.

Target Orbit TCA Probability of collision Miss distance Type
KSLV-II R/B SSO 2025-06-01 00:53:57 0.0001022725 101.0 (m) ROCKET BODY
DELTA 1 DEB LEO 2025-03-02 16:17:49 0.0001529809 43.0 (m) DEBRIS

Associated space launch

A pair of satellites officially described as for cartographic surveying purposes, details TBD.

CZ-6A R/B was lifted into orbit during the mission ‘Long March 6A | Tianhui 5’, on board a Long March 6A space rocket.

The launch took place on Oct. 31, 2023, 10:50 p.m. from Launch Complex 9A.

For more information about the launch, click the button.

Launch to space Long March 6A | Tianhui 5
Long March 6A | Tianhui 5

Agency: N/A

Status: Launch Successful

Launch date: Oct. 31, 2023, 10:50 p.m. UTC

Rocket: Long March 6A

Launch pad: Launch Complex 9A

Location: Taiyuan Satellite Launch Center, People's Republic of China

...

Latest news about this satellite

There are no fresh news available about this satellite. Check back as we update our databases every day.


Newsletter sign-up

Weekly statistics, charts and insights to help you stay on top of the space industry.